{"data":{"norad_id":65413,"epoch":"2026-05-25T04:47:27.670848Z","epoch_age_seconds":57387,"freshness":"FRESH","line1":"1 65413U 25192K   26145.19962582  .00017904  00000+0  61467-3 0  9995","line2":"2 65413  53.1580 237.2918 0000976  93.6151 266.4961 15.30226545 41093","mean_motion":15.30226545,"eccentricity":9.76e-5,"inclination_deg":53.158,"raan_deg":237.2918,"arg_perigee_deg":93.6151,"mean_anomaly_deg":266.4961,"bstar":0.00061467,"rev_number":4109,"period_min":94.103713251164,"perigee_km":474.4669325534,"apogee_km":475.8046914063,"semimajor_km":6853.2728119798,"source":"CELESTRAK","updated_at":"2026-05-25T13:38:20.801163Z"}}